Location: Eastchurch
(51.4000°N, 0.8667°E)
Time: 21:24:36
(UTC+00:00)

Meteor 1-21 - Pass Details

Date: 19 January 2026
Orbit: 845 x 885 km, 81.2° (Epoch: 16 February)

Event Time Altitude Azimuth Distance (km) Brightness Sun altitude
Rises 16:58:11 0° 173° (S) 3,397 7.6 -5.5°
Reaches altitude 10° 17:00:39 10° 168° (SSE) 2,464 6.8 -5.9°
Maximum altitude 17:05:59 49° 95° (E) 1,081 4.5 -6.6°
Drops below altitude 10° 17:11:22 10° 22° (NNE) 2,481 6.2 -7.4°
Sets 17:13:52 0° 17° (NNE) 3,423 7.0 -7.7°
